Year,Month,Day,Hour,Minute,Value (Times are PST for windspeed in km/hr)
2022,05,11,00,00,0.00
2022,05,11,00,01,0.00
2022,05,11,00,02,0.00
2022,05,11,00,03,1.50
2022,05,11,00,04,0.70
2022,05,11,00,05,0.00
2022,05,11,00,06,0.70
2022,05,11,00,07,0.60
2022,05,11,00,08,0.50
2022,05,11,00,09,2.50
2022,05,11,00,10,2.00
2022,05,11,00,11,1.20
2022,05,11,00,12,0.90
2022,05,11,00,13,0.10
2022,05,11,00,14,0.30
2022,05,11,00,15,3.00
2022,05,11,00,16,2.70
2022,05,11,00,17,0.50
2022,05,11,00,18,0.00
2022,05,11,00,19,0.00
2022,05,11,00,20,0.00
2022,05,11,00,21,0.00
2022,05,11,00,22,0.00
2022,05,11,00,23,3.10
2022,05,11,00,24,1.30
2022,05,11,00,25,0.00
2022,05,11,00,26,1.00
2022,05,11,00,27,0.20
2022,05,11,00,28,1.00
2022,05,11,00,29,1.00
2022,05,11,00,30,0.00
2022,05,11,00,31,0.00
2022,05,11,00,32,0.00
2022,05,11,00,33,0.00
2022,05,11,00,34,0.00
2022,05,11,00,35,0.00
2022,05,11,00,36,0.00
2022,05,11,00,37,0.00
2022,05,11,00,38,0.00
2022,05,11,00,39,2.90
2022,05,11,00,40,0.10
2022,05,11,00,41,0.80
2022,05,11,00,42,0.60
2022,05,11,00,43,0.00
2022,05,11,00,44,0.00
2022,05,11,00,45,0.00
2022,05,11,00,46,0.00
2022,05,11,00,47,0.00
2022,05,11,00,48,0.00
2022,05,11,00,49,0.00
2022,05,11,00,50,0.00
2022,05,11,00,51,0.00
2022,05,11,00,52,0.00
2022,05,11,00,53,0.00
2022,05,11,00,54,0.00
2022,05,11,00,55,0.00
2022,05,11,00,56,0.00
2022,05,11,00,57,0.00
2022,05,11,00,58,0.00
2022,05,11,00,59,0.00
2022,05,11,01,00,0.00
2022,05,11,01,01,0.00
2022,05,11,01,02,0.00
2022,05,11,01,03,0.00
2022,05,11,01,04,0.00
2022,05,11,01,05,0.00
2022,05,11,01,06,0.00
2022,05,11,01,07,0.00
2022,05,11,01,08,0.00
2022,05,11,01,09,0.00
2022,05,11,01,10,0.00
2022,05,11,01,11,0.00
2022,05,11,01,12,0.00
2022,05,11,01,13,0.00
2022,05,11,01,14,0.00
2022,05,11,01,15,0.00
2022,05,11,01,16,0.00
2022,05,11,01,17,0.00
2022,05,11,01,18,0.00
2022,05,11,01,19,0.00
2022,05,11,01,20,0.00
2022,05,11,01,21,0.00
2022,05,11,01,22,0.00
2022,05,11,01,23,0.00
2022,05,11,01,24,0.00
2022,05,11,01,25,0.00
2022,05,11,01,26,0.00
2022,05,11,01,27,0.00
2022,05,11,01,28,0.00
2022,05,11,01,29,0.00
2022,05,11,01,30,0.00
2022,05,11,01,31,0.00
2022,05,11,01,32,0.00
2022,05,11,01,33,0.00
2022,05,11,01,34,0.00
2022,05,11,01,35,0.00
2022,05,11,01,36,0.00
2022,05,11,01,37,0.00
2022,05,11,01,38,0.00
2022,05,11,01,39,0.00
2022,05,11,01,40,0.00
2022,05,11,01,41,0.00
2022,05,11,01,42,0.00
2022,05,11,01,43,0.00
2022,05,11,01,44,0.00
2022,05,11,01,45,0.00
2022,05,11,01,46,0.00
2022,05,11,01,47,0.00
2022,05,11,01,48,0.00
2022,05,11,01,49,0.00
2022,05,11,01,50,0.00
2022,05,11,01,51,0.00
2022,05,11,01,52,0.00
2022,05,11,01,53,0.00
2022,05,11,01,54,0.00
2022,05,11,01,55,0.00
2022,05,11,01,56,0.00
2022,05,11,01,57,0.00
2022,05,11,01,58,0.00
2022,05,11,01,59,0.00
2022,05,11,02,00,0.00
2022,05,11,02,01,0.00
2022,05,11,02,02,0.00
2022,05,11,02,03,0.00
2022,05,11,02,04,0.00
2022,05,11,02,05,0.00
2022,05,11,02,06,0.00
2022,05,11,02,07,0.00
2022,05,11,02,08,0.00
2022,05,11,02,09,0.00
2022,05,11,02,10,0.00
2022,05,11,02,11,0.00
2022,05,11,02,12,0.00
2022,05,11,02,13,0.00
2022,05,11,02,14,0.00
2022,05,11,02,15,0.00
2022,05,11,02,16,0.00
2022,05,11,02,17,0.00
2022,05,11,02,18,0.00
2022,05,11,02,19,0.00
2022,05,11,02,20,0.00
2022,05,11,02,21,0.00
2022,05,11,02,22,0.00
2022,05,11,02,23,0.00
2022,05,11,02,24,0.00
2022,05,11,02,25,0.00
2022,05,11,02,26,0.00
2022,05,11,02,27,0.00
2022,05,11,02,28,0.00
2022,05,11,02,29,0.00
2022,05,11,02,30,0.00
2022,05,11,02,31,0.00
2022,05,11,02,32,0.00
2022,05,11,02,33,0.00
2022,05,11,02,34,0.00
2022,05,11,02,35,0.00
2022,05,11,02,36,0.00
2022,05,11,02,37,0.00
2022,05,11,02,38,0.00
2022,05,11,02,39,0.00
2022,05,11,02,40,0.00
2022,05,11,02,41,0.00
2022,05,11,02,42,0.00
2022,05,11,02,43,0.00
2022,05,11,02,44,0.00
2022,05,11,02,45,0.00
2022,05,11,02,46,0.00
2022,05,11,02,47,0.00
2022,05,11,02,48,0.00
2022,05,11,02,49,0.00
2022,05,11,02,50,0.00
2022,05,11,02,51,0.00
2022,05,11,02,52,0.00
2022,05,11,02,53,0.00
2022,05,11,02,54,0.00
2022,05,11,02,55,0.00
2022,05,11,02,56,0.00
2022,05,11,02,57,0.00
2022,05,11,02,58,0.00
2022,05,11,02,59,0.00
2022,05,11,03,00,0.00
2022,05,11,03,01,0.00
2022,05,11,03,02,0.00
2022,05,11,03,03,0.00
2022,05,11,03,04,0.00
2022,05,11,03,05,0.00
2022,05,11,03,06,0.00
2022,05,11,03,07,0.00
2022,05,11,03,08,0.00
2022,05,11,03,09,0.00
2022,05,11,03,10,0.00
2022,05,11,03,11,0.00
2022,05,11,03,12,0.00
2022,05,11,03,13,0.00
2022,05,11,03,14,0.00
2022,05,11,03,15,0.00
2022,05,11,03,16,0.00
2022,05,11,03,17,0.00
2022,05,11,03,18,0.00
2022,05,11,03,19,0.00
2022,05,11,03,20,0.00
2022,05,11,03,21,0.00
2022,05,11,03,22,0.00
2022,05,11,03,23,0.00
2022,05,11,03,24,0.00
2022,05,11,03,25,0.00
2022,05,11,03,26,0.00
2022,05,11,03,27,0.00
2022,05,11,03,28,0.00
2022,05,11,03,29,0.00
2022,05,11,03,30,0.00
2022,05,11,03,31,0.00
2022,05,11,03,32,0.00
2022,05,11,03,33,0.00
2022,05,11,03,34,0.00
2022,05,11,03,35,0.00
2022,05,11,03,36,0.00
2022,05,11,03,37,0.00
2022,05,11,03,38,0.00
2022,05,11,03,39,0.00
2022,05,11,03,40,0.00
2022,05,11,03,41,0.00
2022,05,11,03,42,0.00
2022,05,11,03,43,0.00
2022,05,11,03,44,0.00
2022,05,11,03,45,0.00
2022,05,11,03,46,0.00
2022,05,11,03,47,0.00
2022,05,11,03,48,0.00
2022,05,11,03,49,0.00
2022,05,11,03,50,0.00
2022,05,11,03,51,0.00
2022,05,11,03,52,0.00
2022,05,11,03,53,0.00
2022,05,11,03,54,0.00
2022,05,11,03,55,0.00
2022,05,11,03,56,0.00
2022,05,11,03,57,0.00
2022,05,11,03,58,0.00
2022,05,11,03,59,0.00
2022,05,11,04,00,0.00
2022,05,11,04,01,0.00
2022,05,11,04,02,0.00
2022,05,11,04,03,0.00
2022,05,11,04,04,0.00
2022,05,11,04,05,0.00
2022,05,11,04,06,0.00
2022,05,11,04,07,0.00
2022,05,11,04,08,0.00
2022,05,11,04,09,0.00
2022,05,11,04,10,0.00
2022,05,11,04,11,0.00
2022,05,11,04,12,0.00
2022,05,11,04,13,0.00
2022,05,11,04,14,0.00
2022,05,11,04,15,0.00
2022,05,11,04,16,0.00
2022,05,11,04,17,0.00
2022,05,11,04,18,0.00
2022,05,11,04,19,0.00
2022,05,11,04,20,0.00
2022,05,11,04,21,0.00
2022,05,11,04,22,0.00
2022,05,11,04,23,0.00
2022,05,11,04,24,0.00
2022,05,11,04,25,0.00
2022,05,11,04,26,0.00
2022,05,11,04,27,0.00
2022,05,11,04,28,0.00
2022,05,11,04,29,0.00
2022,05,11,04,30,0.00
2022,05,11,04,31,0.00
2022,05,11,04,32,0.00
2022,05,11,04,33,0.00
2022,05,11,04,34,0.00
2022,05,11,04,35,0.00
2022,05,11,04,36,0.00
2022,05,11,04,37,0.00
2022,05,11,04,38,0.00
2022,05,11,04,39,0.00
2022,05,11,04,40,0.00
2022,05,11,04,41,0.00
2022,05,11,04,42,0.00
2022,05,11,04,43,0.00
2022,05,11,04,44,0.00
2022,05,11,04,45,0.00
2022,05,11,04,46,0.00
2022,05,11,04,47,0.00
2022,05,11,04,48,0.00
2022,05,11,04,49,0.00
2022,05,11,04,50,0.00
2022,05,11,04,51,0.00
2022,05,11,04,52,0.00
2022,05,11,04,53,0.00
2022,05,11,04,54,0.00
2022,05,11,04,55,0.00
2022,05,11,04,56,0.00
2022,05,11,04,57,0.00
2022,05,11,04,58,0.00
2022,05,11,04,59,0.00
2022,05,11,05,00,0.00
2022,05,11,05,01,0.00
2022,05,11,05,02,0.00
2022,05,11,05,03,0.00
2022,05,11,05,04,0.00
2022,05,11,05,05,0.00
2022,05,11,05,06,0.00
2022,05,11,05,07,0.00
2022,05,11,05,08,0.00
2022,05,11,05,09,0.00
2022,05,11,05,10,0.00
2022,05,11,05,11,0.00
2022,05,11,05,12,0.00
2022,05,11,05,13,0.00
2022,05,11,05,14,0.00
2022,05,11,05,15,0.00
2022,05,11,05,16,0.00
2022,05,11,05,17,0.00
2022,05,11,05,18,0.00
2022,05,11,05,19,0.00
2022,05,11,05,20,0.00
2022,05,11,05,21,0.00
2022,05,11,05,22,0.00
2022,05,11,05,23,0.00
2022,05,11,05,24,0.00
2022,05,11,05,25,0.00
2022,05,11,05,26,0.00
2022,05,11,05,27,0.00
2022,05,11,05,28,0.00
2022,05,11,05,29,0.00
2022,05,11,05,30,0.00
2022,05,11,05,31,0.00
2022,05,11,05,32,0.00
2022,05,11,05,33,0.00
2022,05,11,05,34,0.00
2022,05,11,05,35,0.00
2022,05,11,05,36,0.00
2022,05,11,05,37,0.00
2022,05,11,05,38,0.00
2022,05,11,05,39,0.00
2022,05,11,05,40,0.00
2022,05,11,05,41,0.00
2022,05,11,05,42,0.00
2022,05,11,05,43,0.00
2022,05,11,05,44,0.00
2022,05,11,05,45,0.00
2022,05,11,05,46,0.00
2022,05,11,05,47,0.00
2022,05,11,05,48,0.00
2022,05,11,05,49,0.00
2022,05,11,05,50,0.00
2022,05,11,05,51,0.00
2022,05,11,05,52,0.00
2022,05,11,05,53,0.00
2022,05,11,05,54,0.00
2022,05,11,05,55,0.00
2022,05,11,05,56,0.00
2022,05,11,05,57,0.00
2022,05,11,05,58,0.00
2022,05,11,05,59,0.00
2022,05,11,06,00,0.00
2022,05,11,06,01,0.00
2022,05,11,06,02,0.00
2022,05,11,06,03,0.00
2022,05,11,06,04,0.00
2022,05,11,06,05,0.00
2022,05,11,06,06,0.00
2022,05,11,06,07,0.00
2022,05,11,06,08,0.00
2022,05,11,06,09,0.00
2022,05,11,06,10,0.00
2022,05,11,06,11,0.00
2022,05,11,06,12,0.00
2022,05,11,06,13,0.00
2022,05,11,06,14,0.00
2022,05,11,06,15,0.00
2022,05,11,06,16,0.00
2022,05,11,06,17,0.00
2022,05,11,06,18,0.00
2022,05,11,06,19,0.00
2022,05,11,06,20,0.00
2022,05,11,06,21,0.00
2022,05,11,06,22,0.00
2022,05,11,06,23,0.00
2022,05,11,06,24,0.00
2022,05,11,06,25,0.00
2022,05,11,06,26,0.00
2022,05,11,06,27,0.00
2022,05,11,06,28,0.00
2022,05,11,06,29,0.00
2022,05,11,06,30,0.00
2022,05,11,06,31,0.00
2022,05,11,06,32,0.00
2022,05,11,06,33,0.00
2022,05,11,06,34,0.00
2022,05,11,06,35,0.00
2022,05,11,06,36,0.00
2022,05,11,06,37,0.00
2022,05,11,06,38,0.00
2022,05,11,06,39,0.00
2022,05,11,06,40,0.00
2022,05,11,06,41,0.00
2022,05,11,06,42,0.00
2022,05,11,06,43,0.00
2022,05,11,06,44,0.00
2022,05,11,06,45,0.00
2022,05,11,06,46,0.00
2022,05,11,06,47,0.00
2022,05,11,06,48,0.00
2022,05,11,06,49,0.00
2022,05,11,06,50,0.00
2022,05,11,06,51,0.00
2022,05,11,06,52,0.00
2022,05,11,06,53,0.00
2022,05,11,06,54,0.00
2022,05,11,06,55,0.00
2022,05,11,06,56,0.00
2022,05,11,06,57,0.00
2022,05,11,06,58,0.00
2022,05,11,06,59,0.00
2022,05,11,07,00,0.00
2022,05,11,07,01,0.00
2022,05,11,07,02,0.00
2022,05,11,07,03,0.00
2022,05,11,07,04,0.00
2022,05,11,07,05,0.00
2022,05,11,07,06,0.00
2022,05,11,07,07,0.00
2022,05,11,07,08,0.00
2022,05,11,07,09,0.00
2022,05,11,07,10,0.00
2022,05,11,07,11,0.00
2022,05,11,07,12,0.00
2022,05,11,07,13,0.00
2022,05,11,07,14,0.00
2022,05,11,07,15,0.00
2022,05,11,07,16,0.00
2022,05,11,07,17,0.00
2022,05,11,07,18,0.00
2022,05,11,07,19,0.00
2022,05,11,07,20,0.00
2022,05,11,07,21,0.00
2022,05,11,07,22,0.00
2022,05,11,07,23,0.00
2022,05,11,07,24,0.00
2022,05,11,07,25,0.00
2022,05,11,07,26,0.00
2022,05,11,07,27,0.00
2022,05,11,07,28,0.00
2022,05,11,07,29,0.00
2022,05,11,07,30,0.00
2022,05,11,07,31,0.00
2022,05,11,07,32,0.00
2022,05,11,07,33,0.00
2022,05,11,07,34,0.00
2022,05,11,07,35,0.20
2022,05,11,07,36,2.50
2022,05,11,07,37,0.00
2022,05,11,07,38,0.00
2022,05,11,07,39,1.80
2022,05,11,07,40,2.60
2022,05,11,07,41,4.30
2022,05,11,07,42,3.00
2022,05,11,07,43,0.60
2022,05,11,07,44,0.00
2022,05,11,07,45,1.50
2022,05,11,07,46,4.00
2022,05,11,07,47,3.90
2022,05,11,07,48,4.00
2022,05,11,07,49,2.20
2022,05,11,07,50,2.90
2022,05,11,07,51,4.10
2022,05,11,07,52,4.30
2022,05,11,07,53,3.20
2022,05,11,07,54,1.80
2022,05,11,07,55,0.00
2022,05,11,07,56,0.00
2022,05,11,07,57,0.00
2022,05,11,07,58,3.00
2022,05,11,07,59,4.10
2022,05,11,08,00,2.90
2022,05,11,08,01,2.60
2022,05,11,08,02,2.20
2022,05,11,08,03,0.10
2022,05,11,08,04,0.90
2022,05,11,08,05,3.70
2022,05,11,08,06,2.60
2022,05,11,08,07,1.80
2022,05,11,08,08,2.40
2022,05,11,08,09,2.40
2022,05,11,08,10,0.40
2022,05,11,08,11,1.00
2022,05,11,08,12,0.50
2022,05,11,08,13,0.70
2022,05,11,08,14,2.00
2022,05,11,08,15,4.40
2022,05,11,08,16,3.50
2022,05,11,08,17,0.80
2022,05,11,08,18,0.00
2022,05,11,08,19,2.50
2022,05,11,08,20,3.80
2022,05,11,08,21,2.80
2022,05,11,08,22,0.60
2022,05,11,08,23,2.80
2022,05,11,08,24,0.00
2022,05,11,08,25,1.40
2022,05,11,08,26,3.40
2022,05,11,08,27,5.60
2022,05,11,08,28,2.20
2022,05,11,08,29,2.00
2022,05,11,08,30,1.20
2022,05,11,08,31,2.00
2022,05,11,08,32,1.90
2022,05,11,08,33,2.90
2022,05,11,08,34,0.90
2022,05,11,08,35,2.00
2022,05,11,08,36,4.10
2022,05,11,08,37,1.40
2022,05,11,08,38,0.90
2022,05,11,08,39,1.00
2022,05,11,08,40,2.30
2022,05,11,08,41,5.40
2022,05,11,08,42,3.50
2022,05,11,08,43,1.80
2022,05,11,08,44,2.30
2022,05,11,08,45,3.00
2022,05,11,08,46,0.90
2022,05,11,08,47,2.30
2022,05,11,08,48,3.90
2022,05,11,08,49,3.00
2022,05,11,08,50,2.30
2022,05,11,08,51,2.20
2022,05,11,08,52,1.40
2022,05,11,08,53,1.80
2022,05,11,08,54,1.30
2022,05,11,08,55,0.30
2022,05,11,08,56,1.40
2022,05,11,08,57,0.00
2022,05,11,08,58,0.00
2022,05,11,08,59,1.70
2022,05,11,09,00,0.50
2022,05,11,09,01,0.10
2022,05,11,09,02,1.90
2022,05,11,09,03,0.50
2022,05,11,09,04,1.20
2022,05,11,09,05,1.30
2022,05,11,09,06,0.80
2022,05,11,09,07,1.60
2022,05,11,09,08,1.20
2022,05,11,09,09,0.00
2022,05,11,09,10,2.70
2022,05,11,09,11,2.90
2022,05,11,09,12,3.10
2022,05,11,09,13,0.80
2022,05,11,09,14,1.40
2022,05,11,09,15,2.00
2022,05,11,09,16,2.80
2022,05,11,09,17,3.80
2022,05,11,09,18,3.30
2022,05,11,09,19,3.00
2022,05,11,09,20,2.40
2022,05,11,09,21,4.50
2022,05,11,09,22,0.20
2022,05,11,09,23,0.20
2022,05,11,09,24,0.80
2022,05,11,09,25,0.00
2022,05,11,09,26,1.70
2022,05,11,09,27,1.00
2022,05,11,09,28,0.20
2022,05,11,09,29,1.30
2022,05,11,09,30,0.20
2022,05,11,09,31,2.10
2022,05,11,09,32,2.80
2022,05,11,09,33,3.00
2022,05,11,09,34,3.70
2022,05,11,09,35,2.30
2022,05,11,09,36,1.20
2022,05,11,09,37,0.00
2022,05,11,09,38,1.60
2022,05,11,09,39,2.10
2022,05,11,09,40,2.30
2022,05,11,09,41,1.80
2022,05,11,09,42,0.50
2022,05,11,09,43,0.70
2022,05,11,09,44,1.00
2022,05,11,09,45,4.00
2022,05,11,09,46,1.70
2022,05,11,09,47,2.40
2022,05,11,09,48,3.70
2022,05,11,09,49,6.00
2022,05,11,09,50,6.00
2022,05,11,09,51,6.60
2022,05,11,09,52,7.70
2022,05,11,09,53,6.60
2022,05,11,09,54,6.90
2022,05,11,09,55,7.70
2022,05,11,09,56,6.40
2022,05,11,09,57,8.90
2022,05,11,09,58,6.60
2022,05,11,09,59,7.30
2022,05,11,10,00,6.80
2022,05,11,10,01,6.40
2022,05,11,10,02,9.20
2022,05,11,10,03,6.40
2022,05,11,10,04,7.70
2022,05,11,10,05,7.90
2022,05,11,10,06,7.00
2022,05,11,10,07,6.80
2022,05,11,10,08,7.10
2022,05,11,10,09,7.20
2022,05,11,10,10,7.40
2022,05,11,10,11,8.40
2022,05,11,10,12,7.40
2022,05,11,10,13,6.40
2022,05,11,10,14,6.20
2022,05,11,10,15,6.70
2022,05,11,10,16,6.30
2022,05,11,10,17,6.30
2022,05,11,10,18,6.00
2022,05,11,10,19,6.00
2022,05,11,10,20,6.10
2022,05,11,10,21,4.50
2022,05,11,10,22,5.00
2022,05,11,10,23,8.10
2022,05,11,10,24,5.60
2022,05,11,10,25,6.10
2022,05,11,10,26,5.70
2022,05,11,10,27,5.80
2022,05,11,10,28,5.90
2022,05,11,10,29,7.50
2022,05,11,10,30,5.30
2022,05,11,10,31,6.70
2022,05,11,10,32,7.20
2022,05,11,10,33,6.70
2022,05,11,10,34,4.50
2022,05,11,10,35,5.20
2022,05,11,10,36,5.30
2022,05,11,10,37,5.10
2022,05,11,10,38,6.70
2022,05,11,10,39,9.10
2022,05,11,10,40,5.50
2022,05,11,10,41,6.60
2022,05,11,10,42,4.90
2022,05,11,10,43,5.80
2022,05,11,10,44,6.00
2022,05,11,10,45,5.70
2022,05,11,10,46,5.50
2022,05,11,10,47,6.70
2022,05,11,10,48,6.60
2022,05,11,10,49,5.80
2022,05,11,10,50,6.90
2022,05,11,10,51,5.20
2022,05,11,10,52,6.00
2022,05,11,10,53,7.10
2022,05,11,10,54,6.60
2022,05,11,10,55,6.30
2022,05,11,10,56,5.10
2022,05,11,10,57,7.00
2022,05,11,10,58,7.40
2022,05,11,10,59,8.30
2022,05,11,11,00,7.00
2022,05,11,11,01,6.60
2022,05,11,11,02,5.50
2022,05,11,11,03,7.30
2022,05,11,11,04,4.40
2022,05,11,11,05,8.20
2022,05,11,11,06,5.70
2022,05,11,11,07,7.40
2022,05,11,11,08,7.00
2022,05,11,11,09,7.20
2022,05,11,11,10,6.90
2022,05,11,11,11,8.20
2022,05,11,11,12,6.80
2022,05,11,11,13,5.70
2022,05,11,11,14,7.20
2022,05,11,11,15,8.30
2022,05,11,11,16,8.20
2022,05,11,11,17,6.90
2022,05,11,11,18,7.90
2022,05,11,11,19,9.20
2022,05,11,11,20,7.80
2022,05,11,11,21,9.10
2022,05,11,11,22,7.80
2022,05,11,11,23,8.20
2022,05,11,11,24,7.60
2022,05,11,11,25,8.20
2022,05,11,11,26,8.90
2022,05,11,11,27,8.30
2022,05,11,11,28,9.50
2022,05,11,11,29,8.40
2022,05,11,11,30,8.60
2022,05,11,11,31,8.60
2022,05,11,11,32,8.40
2022,05,11,11,33,8.00
2022,05,11,11,34,7.90
2022,05,11,11,35,9.80
2022,05,11,11,36,7.90
2022,05,11,11,37,10.70
2022,05,11,11,38,7.90
2022,05,11,11,39,8.30
2022,05,11,11,40,9.50
2022,05,11,11,41,8.90
2022,05,11,11,42,8.70
2022,05,11,11,43,9.20
2022,05,11,11,44,9.90
2022,05,11,11,45,8.50
2022,05,11,11,46,8.20
2022,05,11,11,47,8.70
2022,05,11,11,48,10.60
2022,05,11,11,49,8.50
2022,05,11,11,50,10.40
2022,05,11,11,51,9.50
2022,05,11,11,52,8.30
2022,05,11,11,53,7.30
2022,05,11,11,54,9.20
2022,05,11,11,55,7.90
2022,05,11,11,56,7.80
2022,05,11,11,57,8.20
2022,05,11,11,58,9.80
2022,05,11,11,59,8.60
2022,05,11,12,00,8.60
2022,05,11,12,01,8.30
2022,05,11,12,02,8.50
2022,05,11,12,03,9.90
2022,05,11,12,04,8.30
2022,05,11,12,05,10.00
2022,05,11,12,06,11.00
2022,05,11,12,07,9.40
2022,05,11,12,08,8.70
2022,05,11,12,09,8.90
2022,05,11,12,10,10.20
2022,05,11,12,11,8.40
2022,05,11,12,12,8.80
2022,05,11,12,13,8.50
2022,05,11,12,14,8.60
2022,05,11,12,15,7.90
2022,05,11,12,16,9.70
2022,05,11,12,17,9.00
2022,05,11,12,18,8.20
2022,05,11,12,19,9.70
2022,05,11,12,20,7.90
2022,05,11,12,21,11.00
2022,05,11,12,22,9.70
2022,05,11,12,23,10.00
2022,05,11,12,24,10.60
2022,05,11,12,25,9.50
2022,05,11,12,26,8.60
2022,05,11,12,27,8.40
2022,05,11,12,28,9.70
2022,05,11,12,29,9.30
2022,05,11,12,30,10.60
2022,05,11,12,31,10.60
2022,05,11,12,32,8.60
2022,05,11,12,33,11.60
2022,05,11,12,34,9.20
2022,05,11,12,35,8.90
2022,05,11,12,36,9.40
2022,05,11,12,37,9.80
2022,05,11,12,38,10.70
2022,05,11,12,39,11.90
2022,05,11,12,40,11.40
2022,05,11,12,41,11.10
2022,05,11,12,42,10.80
2022,05,11,12,43,10.60
2022,05,11,12,44,9.80
2022,05,11,12,45,9.70
2022,05,11,12,46,7.80
2022,05,11,12,47,8.00
2022,05,11,12,48,11.60
2022,05,11,12,49,12.00
2022,05,11,12,50,9.70
2022,05,11,12,51,9.20
2022,05,11,12,52,7.10
2022,05,11,12,53,10.20
2022,05,11,12,54,9.40
2022,05,11,12,55,8.40
2022,05,11,12,56,10.60
2022,05,11,12,57,10.40
2022,05,11,12,58,11.00
2022,05,11,12,59,11.00
2022,05,11,13,00,11.90
2022,05,11,13,01,9.60
2022,05,11,13,02,7.80
2022,05,11,13,03,8.30
2022,05,11,13,04,9.50
2022,05,11,13,05,9.10
2022,05,11,13,06,12.00
2022,05,11,13,07,11.20
2022,05,11,13,08,11.30
2022,05,11,13,09,10.50
2022,05,11,13,10,9.30
2022,05,11,13,11,13.20
2022,05,11,13,12,12.00
2022,05,11,13,13,10.40
2022,05,11,13,14,9.50
2022,05,11,13,15,10.10
2022,05,11,13,16,9.50
2022,05,11,13,17,8.70
2022,05,11,13,18,8.80
2022,05,11,13,19,7.40
2022,05,11,13,20,7.50
2022,05,11,13,21,7.30
2022,05,11,13,22,8.60
2022,05,11,13,23,8.70
2022,05,11,13,24,9.50
2022,05,11,13,25,11.10
2022,05,11,13,26,9.40
2022,05,11,13,27,8.50
2022,05,11,13,28,8.10
2022,05,11,13,29,9.80
2022,05,11,13,30,9.70
2022,05,11,13,31,7.60
2022,05,11,13,32,8.70
2022,05,11,13,33,9.20
2022,05,11,13,34,5.80
2022,05,11,13,35,5.90
2022,05,11,13,36,5.20
2022,05,11,13,37,5.50
2022,05,11,13,38,5.80
2022,05,11,13,39,6.10
2022,05,11,13,40,3.90
2022,05,11,13,41,4.10
2022,05,11,13,42,7.00
2022,05,11,13,43,5.80
2022,05,11,13,44,6.30
2022,05,11,13,45,4.90
2022,05,11,13,46,5.50
2022,05,11,13,47,5.20
2022,05,11,13,48,4.80
2022,05,11,13,49,7.20
2022,05,11,13,50,6.30
2022,05,11,13,51,6.30
2022,05,11,13,52,5.60
2022,05,11,13,53,4.80
2022,05,11,13,54,7.20
2022,05,11,13,55,5.20
2022,05,11,13,56,4.90
2022,05,11,13,57,6.90
2022,05,11,13,58,8.20
2022,05,11,13,59,4.10
2022,05,11,14,00,8.20
2022,05,11,14,01,5.30
2022,05,11,14,02,6.60
2022,05,11,14,03,7.70
2022,05,11,14,04,11.00
2022,05,11,14,05,8.10
2022,05,11,14,06,7.80
2022,05,11,14,07,7.30
2022,05,11,14,08,6.30
2022,05,11,14,09,6.60
2022,05,11,14,10,7.40
2022,05,11,14,11,6.90
2022,05,11,14,12,6.40
2022,05,11,14,13,7.90
2022,05,11,14,14,6.40
2022,05,11,14,15,4.80
2022,05,11,14,16,5.60
2022,05,11,14,17,6.90
2022,05,11,14,18,2.70
2022,05,11,14,19,6.00
2022,05,11,14,20,7.50
2022,05,11,14,21,7.00
2022,05,11,14,22,6.30
2022,05,11,14,23,6.40
2022,05,11,14,24,7.00
2022,05,11,14,25,4.60
2022,05,11,14,26,6.20
2022,05,11,14,27,5.20
2022,05,11,14,28,2.70
2022,05,11,14,29,4.00
2022,05,11,14,30,4.50
2022,05,11,14,31,3.80
2022,05,11,14,32,4.60
2022,05,11,14,33,3.80
2022,05,11,14,34,4.40
2022,05,11,14,35,4.20
2022,05,11,14,36,4.50
2022,05,11,14,37,5.20
2022,05,11,14,38,0.50
2022,05,11,14,39,2.20
2022,05,11,14,40,4.70
2022,05,11,14,41,5.10
2022,05,11,14,42,5.30
2022,05,11,14,43,5.90
2022,05,11,14,44,6.80
2022,05,11,14,45,7.10
2022,05,11,14,46,3.70
2022,05,11,14,47,4.60
2022,05,11,14,48,4.80
2022,05,11,14,49,2.90
2022,05,11,14,50,5.00
2022,05,11,14,51,4.90
2022,05,11,14,52,2.80
2022,05,11,14,53,4.80
2022,05,11,14,54,2.40
2022,05,11,14,55,0.00
2022,05,11,14,56,0.00
2022,05,11,14,57,3.20
2022,05,11,14,58,5.50
2022,05,11,14,59,6.40
2022,05,11,15,00,3.00
2022,05,11,15,01,4.40
2022,05,11,15,02,5.80
2022,05,11,15,03,3.70
2022,05,11,15,04,5.40
2022,05,11,15,05,2.40
2022,05,11,15,06,0.00
2022,05,11,15,07,0.00
2022,05,11,15,08,3.50
2022,05,11,15,09,3.90
2022,05,11,15,10,7.90
2022,05,11,15,11,4.40
2022,05,11,15,12,7.80
2022,05,11,15,13,9.60
2022,05,11,15,14,6.70
2022,05,11,15,15,9.10
2022,05,11,15,16,7.00
2022,05,11,15,17,4.10
2022,05,11,15,18,4.50
2022,05,11,15,19,6.60
2022,05,11,15,20,4.80
2022,05,11,15,21,1.00
2022,05,11,15,22,0.00
2022,05,11,15,23,3.70
2022,05,11,15,24,10.10
2022,05,11,15,25,5.90
2022,05,11,15,26,0.50
2022,05,11,15,27,1.40
2022,05,11,15,28,2.10
2022,05,11,15,29,2.60
2022,05,11,15,30,4.20
2022,05,11,15,31,2.60
2022,05,11,15,32,4.00
2022,05,11,15,33,4.30
2022,05,11,15,34,3.60
2022,05,11,15,35,4.00
2022,05,11,15,36,2.00
2022,05,11,15,37,1.10
2022,05,11,15,38,4.10
2022,05,11,15,39,2.40
2022,05,11,15,40,2.90
2022,05,11,15,41,4.10
2022,05,11,15,42,3.80
2022,05,11,15,43,3.70
2022,05,11,15,44,3.40
2022,05,11,15,45,3.20
2022,05,11,15,46,4.30
2022,05,11,15,47,3.30
2022,05,11,15,48,2.50
2022,05,11,15,49,0.00
2022,05,11,15,50,0.00
2022,05,11,15,51,0.00
2022,05,11,15,52,2.00
2022,05,11,15,53,0.50
2022,05,11,15,54,0.60
2022,05,11,15,55,1.30
2022,05,11,15,56,1.80
2022,05,11,15,57,0.20
2022,05,11,15,58,0.00
2022,05,11,15,59,0.00
2022,05,11,16,00,0.00
2022,05,11,16,01,2.30
2022,05,11,16,02,3.00
2022,05,11,16,03,2.00
2022,05,11,16,04,0.10
2022,05,11,16,05,0.00
2022,05,11,16,06,0.00
2022,05,11,16,07,0.00
2022,05,11,16,08,0.00
2022,05,11,16,09,0.00
2022,05,11,16,10,0.00
2022,05,11,16,11,0.00
2022,05,11,16,12,1.00
2022,05,11,16,13,1.40
2022,05,11,16,14,2.40
2022,05,11,16,15,3.40
2022,05,11,16,16,2.20
2022,05,11,16,17,1.50
2022,05,11,16,18,2.20
2022,05,11,16,19,3.30
2022,05,11,16,20,0.40
2022,05,11,16,21,2.40
2022,05,11,16,22,2.90
2022,05,11,16,23,2.20
2022,05,11,16,24,1.50
2022,05,11,16,25,1.40
2022,05,11,16,26,3.10
2022,05,11,16,27,0.40
2022,05,11,16,28,1.10
2022,05,11,16,29,0.00
2022,05,11,16,30,2.60
2022,05,11,16,31,1.70
2022,05,11,16,32,0.10
2022,05,11,16,33,0.00
2022,05,11,16,34,0.00
2022,05,11,16,35,0.00
2022,05,11,16,36,0.00
2022,05,11,16,37,0.00
2022,05,11,16,38,0.00
2022,05,11,16,39,0.00
2022,05,11,16,40,0.00
2022,05,11,16,41,0.30
2022,05,11,16,42,1.10
2022,05,11,16,43,1.60
2022,05,11,16,44,1.10
2022,05,11,16,45,1.60
2022,05,11,16,46,1.40
2022,05,11,16,47,1.80
2022,05,11,16,48,1.90
2022,05,11,16,49,1.50
2022,05,11,16,50,0.20
2022,05,11,16,51,0.80
2022,05,11,16,52,2.60
2022,05,11,16,53,1.80
2022,05,11,16,54,0.40
2022,05,11,16,55,2.10
2022,05,11,16,56,1.90
2022,05,11,16,57,1.30
2022,05,11,16,58,2.60
2022,05,11,16,59,3.10
2022,05,11,17,00,1.00
2022,05,11,17,01,3.90
2022,05,11,17,02,4.20
2022,05,11,17,03,1.30
2022,05,11,17,04,3.40
2022,05,11,17,05,1.50
2022,05,11,17,06,2.40
2022,05,11,17,07,3.70
2022,05,11,17,08,1.70
2022,05,11,17,09,2.10
2022,05,11,17,10,2.40
2022,05,11,17,11,0.20
2022,05,11,17,12,0.00
2022,05,11,17,13,0.00
2022,05,11,17,14,0.00
2022,05,11,17,15,1.40
2022,05,11,17,16,2.70
2022,05,11,17,17,0.60
2022,05,11,17,18,0.20
2022,05,11,17,19,0.00
2022,05,11,17,20,0.00
2022,05,11,17,21,0.00
2022,05,11,17,22,0.00
2022,05,11,17,23,0.00
2022,05,11,17,24,0.00
2022,05,11,17,25,0.00
2022,05,11,17,26,3.20
2022,05,11,17,27,2.50
2022,05,11,17,28,0.10
2022,05,11,17,29,0.00
2022,05,11,17,30,1.00
2022,05,11,17,31,1.00
2022,05,11,17,32,0.10
2022,05,11,17,33,0.00
2022,05,11,17,34,0.80
2022,05,11,17,35,1.90
2022,05,11,17,36,0.00
2022,05,11,17,37,0.00
2022,05,11,17,38,0.00
2022,05,11,17,39,0.00
2022,05,11,17,40,0.00
2022,05,11,17,41,0.00
2022,05,11,17,42,0.00
2022,05,11,17,43,0.00
2022,05,11,17,44,0.00
2022,05,11,17,45,0.00
2022,05,11,17,46,0.00
2022,05,11,17,47,0.00
2022,05,11,17,48,1.80
2022,05,11,17,49,0.00
2022,05,11,17,50,0.00
2022,05,11,17,51,0.00
2022,05,11,17,52,0.00
2022,05,11,17,53,0.00
2022,05,11,17,54,0.00
2022,05,11,17,55,0.00
2022,05,11,17,56,0.00
2022,05,11,17,57,0.00
2022,05,11,17,58,0.00
2022,05,11,17,59,0.00
2022,05,11,18,00,0.00
2022,05,11,18,01,0.00
2022,05,11,18,02,2.10
2022,05,11,18,03,1.10
2022,05,11,18,04,1.60